Location: Newark
(21.8258°S, 114.1586°E)
Time: 15:02:17
(UTC+00:00)

Hubble Space Telescope - Pass Details

Date: 13 December 2019
Orbit: 536 x 540 km, 28.5° (Epoch: 17 January)

Event Time Altitude Azimuth Distance (km) Brightness Sun altitude
Rises 12:39:31 0° 254° (WSW) 2,684 5.6 -20.5°
Reaches altitude 10° 12:41:58 10° 243° (WSW) 1,794 4.6 -20.9°
Maximum altitude 12:45:41 31° 179° (S) 950 2.3 -21.6°
Enters shadow 12:47:29 22° 135° (SE) 1,200 2.4 -21.9°
